| time (UTC) | temp C | wind direction | speed KPH | gust KPH | rain 1hr cm | rain 24hr cm | rain mn cm | humidity % | barometer mb |
| 20260504175059 | 20 | 267 | 9.7 | 29.0 | 0.00 | 0.00 | 0.00 | 38 | 1011.7 |
| 20260504174614 | 21 | 175 | 8.0 | 22.5 | 0.00 | 0.00 | 0.00 | 38 | 1011.8 |
| 20260504174059 | 20 | 215 | 3.2 | 24.1 | 0.00 | 0.00 | 0.00 | 39 | 1012.0 |
| 20260504173559 | 20 | 200 | 11.3 | 24.1 | 0.00 | 0.00 | 0.00 | 37 | 1011.8 |
| 20260504173102 | 20 | 210 | 9.7 | 22.5 | 0.00 | 0.00 | 0.00 | 37 | 1012.0 |
| 20260504172558 | 21 | 284 | 4.8 | 22.5 | 0.00 | 0.00 | 0.00 | 39 | 1012.1 |
| 20260504172059 | 21 | 264 | 4.8 | 25.7 | 0.00 | 0.00 | 0.00 | 38 | 1012.0 |
| 20260504171602 | 20 | 307 | 6.4 | 27.4 | 0.00 | 0.00 | 0.00 | 38 | 1012.1 |
| 20260504171059 | 20 | 223 | 9.7 | 27.4 | 0.00 | 0.00 | 0.00 | 38 | 1012.2 |
| 20260504170600 | 20 | 134 | 11.3 | 24.1 | 0.00 | 0.00 | 0.00 | 39 | 1012.3 |
| 20260504160109 | 18 | 302 | 11.3 | 25.7 | 0.00 | 0.00 | 0.00 | 39 | 1013.2 |
| 20260504151059 | 17 | 301 | 8.0 | 27.4 | 0.00 | 0.00 | 0.00 | 42 | 1013.9 |
| 20260504150559 | 17 | 317 | 9.7 | 27.4 | 0.00 | 0.00 | 0.00 | 44 | 1014.1 |
| 20260504150113 | 17 | 265 | 8.0 | 22.5 | 0.00 | 0.00 | 0.00 | 42 | 1014.1 |
| 20260504141100 | 16 | 243 | 8.0 | 19.3 | 0.00 | 0.00 | 0.00 | 46 | 1014.0 |
| 20260504140600 | 16 | 191 | 8.0 | 19.3 | 0.00 | 0.00 | 0.00 | 47 | 1014.0 |
| 20260504130601 | 13 | 297 | 4.8 | 16.1 | 0.00 | 0.00 | 0.00 | 54 | 1014.5 |
| 20260504120105 | 7 | 151 | 3.2 | 6.4 | 0.00 | 0.00 | 0.00 | 80 | 1015.0 |
| 20260504110559 | 3 | 205 | 1.6 | 3.2 | 0.00 | 0.00 | 0.00 | 91 | 1015.3 |
| 20260504100602 | 3 | 229 | 3.2 | 4.8 | 0.00 | 0.00 | 0.00 | 92 | 1015.2 |
| 20260504090110 | 3 | 253 | 1.6 | 3.2 | 0.00 | 0.00 | 0.00 | 92 | 1015.1 |
| 20260504081556 | 3 | 0 | 0.0 | 0.0 | 0.00 | 0.00 | 0.00 | 90 | 1015.0 |
| 20260504081059 | 3 | 0 | 0.0 | 0.0 | 0.00 | 0.00 | 0.00 | 91 | 1015.0 |
| 20260504080603 | 3 | 0 | 0.0 | 0.0 | 0.00 | 0.00 | 0.00 | 91 | 1015.0 |
| 20260504050600 | 5 | 0 | 0.0 | 0.0 | 0.00 | 0.00 | 0.00 | 84 | 1014.8 |
| 20260504045600 | 5 | 0 | 0.0 | 0.0 | 0.00 | 0.00 | 0.00 | 84 | 1014.7 |
| 20260504045058 | 5 | 0 | 0.0 | 0.0 | 0.00 | 0.00 | 0.00 | 84 | 1014.7 |
| 20260504044605 | 5 | 0 | 0.0 | 0.0 | 0.00 | 0.00 | 0.00 | 84 | 1014.7 |
| 20260504044102 | 5 | 0 | 0.0 | 0.0 | 0.00 | 0.00 | 0.00 | 85 | 1014.7 |
| 20260504043600 | 5 | 0 | 0.0 | 0.0 | 0.00 | 0.00 | 0.00 | 84 | 1014.6 |
| 20260504043102 | 5 | 0 | 0.0 | 0.0 | 0.00 | 0.00 | 0.00 | 83 | 1014.6 |
| 20260504042600 | 5 | 0 | 0.0 | 0.0 | 0.00 | 0.00 | 0.00 | 83 | 1014.6 |
| 20260504042059 | 5 | 0 | 0.0 | 0.0 | 0.00 | 0.00 | 0.00 | 84 | 1014.5 |
| 20260504041558 | 5 | 0 | 0.0 | 0.0 | 0.00 | 0.00 | 0.00 | 82 | 1014.4 |
| 20260504041100 | 5 | 0 | 0.0 | 0.0 | 0.00 | 0.00 | 0.00 | 81 | 1014.3 |
| 20260504040559 | 6 | 0 | 0.0 | 0.0 | 0.00 | 0.00 | 0.00 | 81 | 1014.2 |
| 20260504040107 | 6 | 0 | 0.0 | 0.0 | 0.00 | 0.00 | 0.00 | 81 | 1014.2 |
| 20260504035558 | 6 | 0 | 0.0 | 0.0 | 0.00 | 0.00 | 0.00 | 81 | 1014.0 |
| 20260504035101 | 6 | 0 | 0.0 | 0.0 | 0.00 | 0.00 | 0.00 | 82 | 1014.0 |
| 20260504034634 | 6 | 0 | 0.0 | 0.0 | 0.00 | 0.00 | 0.00 | 79 | 1013.9 |
| 20260504034103 | 6 | 0 | 0.0 | 0.0 | 0.00 | 0.00 | 0.00 | 79 | 1014.0 |
| 20260504033600 | 6 | 0 | 0.0 | 0.0 | 0.00 | 0.00 | 0.00 | 78 | 1013.9 |
| 20260504033104 | 6 | 0 | 0.0 | 0.0 | 0.00 | 0.00 | 0.00 | 77 | 1013.9 |
| 20260504032600 | 6 | 0 | 0.0 | 0.0 | 0.00 | 0.00 | 0.00 | 76 | 1013.9 |
| 20260504032100 | 6 | 0 | 0.0 | 0.0 | 0.00 | 0.00 | 0.00 | 76 | 1013.9 |
| 20260504031600 | 6 | 0 | 0.0 | 0.0 | 0.00 | 0.00 | 0.00 | 76 | 1013.9 |
| 20260504031101 | 7 | 0 | 0.0 | 0.0 | 0.00 | 0.00 | 0.00 | 75 | 1013.9 |
| 20260504030559 | 7 | 0 | 0.0 | 0.0 | 0.00 | 0.00 | 0.00 | 76 | 1014.0 |
| 20260504030124 | 7 | 0 | 0.0 | 0.0 | 0.00 | 0.00 | 0.00 | 76 | 1013.9 |
| 20260504025600 | 7 | 0 | 0.0 | 0.0 | 0.00 | 0.00 | 0.00 | 76 | 1013.8 |
| 20260504025102 | 7 | 0 | 0.0 | 0.0 | 0.00 | 0.00 | 0.00 | 77 | 1013.9 |
| 20260504024602 | 7 | 0 | 0.0 | 0.0 | 0.00 | 0.00 | 0.00 | 77 | 1013.9 |
| 20260504024101 | 7 | 0 | 0.0 | 0.0 | 0.00 | 0.00 | 0.00 | 76 | 1013.9 |
| 20260504023601 | 7 | 0 | 0.0 | 0.0 | 0.00 | 0.00 | 0.00 | 73 | 1014.0 |
| 20260504023103 | 7 | 0 | 0.0 | 0.0 | 0.00 | 0.00 | 0.00 | 72 | 1013.9 |
| 20260504022601 | 7 | 0 | 0.0 | 0.0 | 0.00 | 0.00 | 0.00 | 72 | 1013.9 |
| 20260504022059 | 8 | 0 | 0.0 | 0.0 | 0.00 | 0.00 | 0.00 | 72 | 1013.9 |
| 20260504021558 | 8 | 0 | 0.0 | 0.0 | 0.00 | 0.00 | 0.00 | 69 | 1013.9 |
| 20260504021102 | 8 | 0 | 0.0 | 0.0 | 0.00 | 0.00 | 0.00 | 67 | 1013.9 |
| 20260504020557 | 8 | 0 | 0.0 | 0.0 | 0.00 | 0.00 | 0.00 | 67 | 1014.0 |
| 20260504020108 | 8 | 0 | 0.0 | 0.0 | 0.00 | 0.00 | 0.00 | 64 | 1014.0 |
| 20260504015601 | 8 | 0 | 0.0 | 0.0 | 0.00 | 0.00 | 0.00 | 65 | 1013.9 |
| 20260504015100 | 8 | 0 | 0.0 | 0.0 | 0.00 | 0.00 | 0.00 | 66 | 1013.9 |
| 20260504014607 | 8 | 0 | 0.0 | 0.0 | 0.00 | 0.00 | 0.00 | 66 | 1013.9 |
| 20260504014101 | 8 | 0 | 0.0 | 0.0 | 0.00 | 0.00 | 0.00 | 63 | 1013.8 |
| 20260504013559 | 8 | 0 | 0.0 | 0.0 | 0.00 | 0.00 | 0.00 | 61 | 1013.8 |
| 20260504013058 | 9 | 0 | 0.0 | 0.0 | 0.00 | 0.00 | 0.00 | 62 | 1013.8 |
| 20260504012556 | 9 | 0 | 0.0 | 0.0 | 0.00 | 0.00 | 0.00 | 62 | 1013.8 |
| 20260504012056 | 9 | 0 | 0.0 | 0.0 | 0.00 | 0.00 | 0.00 | 63 | 1013.7 |
| 20260504011559 | 9 | 0 | 0.0 | 0.0 | 0.00 | 0.00 | 0.00 | 62 | 1013.6 |
| 20260504011058 | 9 | 0 | 0.0 | 0.0 | 0.00 | 0.00 | 0.00 | 62 | 1013.6 |
| 20260504010558 | 10 | 0 | 0.0 | 0.0 | 0.00 | 0.00 | 0.00 | 61 | 1013.5 |
| 20260504010058 | 10 | 0 | 0.0 | 0.0 | 0.00 | 0.00 | 0.00 | 58 | 1013.5 |
| 20260504005559 | 10 | 0 | 0.0 | 0.0 | 0.00 | 0.00 | 0.00 | 56 | 1013.4 |
| 20260504005105 | 10 | 0 | 0.0 | 0.0 | 0.00 | 0.00 | 0.00 | 54 | 1013.3 |
| 20260504004558 | 10 | 0 | 0.0 | 3.2 | 0.00 | 0.00 | 0.00 | 56 | 1013.3 |
| 20260504004100 | 10 | 0 | 0.0 | 3.2 | 0.00 | 0.00 | 0.00 | 55 | 1013.3 |
| 20260504003601 | 11 | 0 | 0.0 | 3.2 | 0.00 | 0.00 | 0.00 | 54 | 1013.2 |
| 20260504003100 | 11 | 253 | 0.0 | 3.2 | 0.00 | 0.00 | 0.00 | 54 | 1013.0 |
| 20260504002559 | 11 | 253 | 0.0 | 3.2 | 0.00 | 0.00 | 0.00 | 50 | 1012.9 |
| 20260504002059 | 11 | 253 | 0.0 | 3.2 | 0.00 | 0.00 | 0.00 | 53 | 1012.7 |
| 20260504001607 | 12 | 0 | 0.0 | 3.2 | 0.00 | 0.00 | 0.00 | 50 | 1012.7 |
| 20260504001059 | 12 | 253 | 0.0 | 3.2 | 0.00 | 0.00 | 0.00 | 51 | 1012.6 |
| 20260504000559 | 12 | 0 | 0.0 | 3.2 | 0.00 | 0.00 | 0.00 | 49 | 1012.5 |
| 20260504000059 | 12 | 253 | 0.0 | 3.2 | 0.00 | 0.00 | 0.00 | 46 | 1012.6 |
| 20260503235559 | 13 | 253 | 0.0 | 3.2 | 0.00 | 0.00 | 0.00 | 47 | 1012.6 |
| 20260503235059 | 13 | 253 | 0.0 | 3.2 | 0.00 | 0.00 | 0.00 | 46 | 1012.5 |
| 20260503234558 | 13 | 253 | 1.6 | 3.2 | 0.00 | 0.00 | 0.00 | 42 | 1012.4 |
| 20260503234059 | 13 | 255 | 1.6 | 4.8 | 0.00 | 0.00 | 0.00 | 42 | 1012.4 |
| 20260503233559 | 14 | 254 | 1.6 | 4.8 | 0.00 | 0.00 | 0.00 | 42 | 1012.3 |
| 20260503233102 | 14 | 280 | 1.6 | 3.2 | 0.00 | 0.00 | 0.00 | 39 | 1012.3 |
| 20260503232600 | 15 | 282 | 1.6 | 6.4 | 0.00 | 0.00 | 0.00 | 38 | 1012.3 |
| 20260503232059 | 15 | 229 | 1.6 | 6.4 | 0.00 | 0.00 | 0.00 | 37 | 1012.3 |
| 20260503231558 | 15 | 266 | 1.6 | 6.4 | 0.00 | 0.00 | 0.00 | 37 | 1012.2 |
| 20260503231059 | 15 | 262 | 1.6 | 14.5 | 0.00 | 0.00 | 0.00 | 36 | 1012.3 |
| 20260503230600 | 15 | 257 | 6.4 | 14.5 | 0.00 | 0.00 | 0.00 | 35 | 1012.3 |
| 20260503225559 | 15 | 309 | 1.6 | 9.7 | 0.00 | 0.00 | 0.00 | 35 | 1012.2 |
| 20260503225102 | 15 | 344 | 3.2 | 8.0 | 0.00 | 0.00 | 0.00 | 35 | 1012.1 |
| 20260503224558 | 15 | 323 | 3.2 | 11.3 | 0.00 | 0.00 | 0.00 | 37 | 1012.1 |
| 20260503224100 | 15 | 38 | 3.2 | 25.7 | 0.00 | 0.00 | 0.00 | 36 | 1012.1 |
| 20260503223559 | 15 | 344 | 8.0 | 25.7 | 0.00 | 0.00 | 0.00 | 35 | 1012.1 |
| 20260503223057 | 15 | 320 | 6.4 | 17.7 | 0.00 | 0.00 | 0.00 | 35 | 1012.2 |
| 20260503222558 | 15 | 312 | 4.8 | 12.9 | 0.00 | 0.00 | 0.00 | 35 | 1012.2 |
| 20260503222100 | 15 | 275 | 3.2 | 12.9 | 0.00 | 0.00 | 0.00 | 36 | 1012.1 |
| 20260503221602 | 15 | 339 | 6.4 | 22.5 | 0.00 | 0.00 | 0.00 | 34 | 1012.2 |
| 20260503221101 | 15 | 334 | 8.0 | 19.3 | 0.00 | 0.00 | 0.00 | 34 | 1012.2 |
| 20260503220600 | 15 | 336 | 6.4 | 22.5 | 0.00 | 0.00 | 0.00 | 33 | 1012.1 |
| 20260503220059 | 15 | 9 | 8.0 | 24.1 | 0.00 | 0.00 | 0.00 | 33 | 1012.1 |
| 20260503215600 | 15 | 335 | 9.7 | 29.0 | 0.00 | 0.00 | 0.00 | 32 | 1012.1 |
| 20260503215059 | 15 | 311 | 11.3 | 29.0 | 0.00 | 0.00 | 0.00 | 33 | 1012.2 |
| 20260503214604 | 15 | 336 | 9.7 | 25.7 | 0.00 | 0.00 | 0.00 | 33 | 1012.3 |
| 20260503214059 | 15 | 318 | 12.9 | 25.7 | 0.00 | 0.00 | 0.00 | 34 | 1012.2 |
| 20260503213559 | 15 | 340 | 12.9 | 24.1 | 0.00 | 0.00 | 0.00 | 34 | 1012.0 |
| 20260503213058 | 15 | 300 | 3.2 | 20.9 | 0.00 | 0.00 | 0.00 | 34 | 1012.1 |
| 20260503212601 | 15 | 298 | 6.4 | 20.9 | 0.00 | 0.00 | 0.00 | 34 | 1012.1 |
| 20260503212100 | 16 | 323 | 9.7 | 20.9 | 0.00 | 0.00 | 0.00 | 32 | 1012.1 |
| 20260503211602 | 15 | 308 | 8.0 | 19.3 | 0.00 | 0.00 | 0.00 | 32 | 1012.0 |
| 20260503211102 | 15 | 268 | 8.0 | 29.0 | 0.00 | 0.00 | 0.00 | 32 | 1012.0 |
| 20260503210600 | 15 | 316 | 12.9 | 29.0 | 0.00 | 0.00 | 0.00 | 32 | 1012.2 |
| 20260503210057 | 15 | 268 | 8.0 | 22.5 | 0.00 | 0.00 | 0.00 | 33 | 1012.1 |
| 20260503205600 | 15 | 347 | 6.4 | 22.5 | 0.00 | 0.00 | 0.00 | 33 | 1012.1 |
| 20260503205100 | 15 | 346 | 12.9 | 22.5 | 0.00 | 0.00 | 0.00 | 32 | 1012.1 |
| 20260503204602 | 15 | 291 | 4.8 | 20.9 | 0.00 | 0.00 | 0.00 | 34 | 1012.3 |
| 20260503204059 | 15 | 252 | 9.7 | 27.4 | 0.00 | 0.00 | 0.00 | 33 | 1012.2 |
| 20260503203559 | 15 | 209 | 9.7 | 27.4 | 0.00 | 0.00 | 0.00 | 33 | 1012.3 |
| 20260503203103 | 15 | 302 | 6.4 | 22.5 | 0.00 | 0.00 | 0.00 | 34 | 1012.3 |
| 20260503202559 | 15 | 269 | 9.7 | 22.5 | 0.00 | 0.00 | 0.00 | 35 | 1012.3 |
| 20260503202101 | 15 | 318 | 6.4 | 20.9 | 0.00 | 0.00 | 0.00 | 38 | 1012.4 |
| 20260503201601 | 15 | 234 | 3.2 | 20.9 | 0.00 | 0.00 | 0.00 | 35 | 1012.4 |
| 20260503201059 | 15 | 343 | 9.7 | 24.1 | 0.00 | 0.00 | 0.00 | 35 | 1012.6 |
| 20260503200559 | 15 | 321 | 11.3 | 24.1 | 0.00 | 0.00 | 0.00 | 33 | 1012.6 |
| 20260503200100 | 15 | 306 | 9.7 | 22.5 | 0.00 | 0.00 | 0.00 | 35 | 1012.7 |
| 20260503195558 | 15 | 38 | 3.2 | 17.7 | 0.00 | 0.00 | 0.00 | 37 | 1012.7 |
| 20260503195059 | 14 | 12 | 6.4 | 29.0 | 0.00 | 0.00 | 0.00 | 37 | 1012.8 |
| 20260503194601 | 14 | 246 | 6.4 | 29.0 | 0.00 | 0.00 | 0.00 | 35 | 1012.8 |
| 20260503194101 | 15 | 278 | 11.3 | 29.0 | 0.00 | 0.00 | 0.00 | 35 | 1012.9 |
| 20260503193559 | 14 | 347 | 9.7 | 19.3 | 0.00 | 0.00 | 0.00 | 38 | 1012.9 |
| 20260503193112 | 14 | 297 | 6.4 | 29.0 | 0.00 | 0.00 | 0.00 | 34 | 1012.9 |
| 20260503192559 | 14 | 81 | 4.8 | 29.0 | 0.00 | 0.00 | 0.00 | 35 | 1012.9 |
| 20260503192059 | 14 | 323 | 11.3 | 29.0 | 0.00 | 0.00 | 0.00 | 35 | 1013.1 |
| 20260503191600 | 14 | 321 | 9.7 | 27.4 | 0.00 | 0.00 | 0.00 | 35 | 1013.0 |
| 20260503191101 | 14 | 69 | 11.3 | 27.4 | 0.00 | 0.00 | 0.00 | 35 | 1013.1 |
| 20260503190559 | 14 | 329 | 9.7 | 25.7 | 0.00 | 0.00 | 0.00 | 35 | 1013.1 |
| 20260503190107 | 14 | 352 | 11.3 | 32.2 | 0.00 | 0.00 | 0.00 | 35 | 1013.0 |
| 20260503185559 | 14 | 319 | 14.5 | 32.2 | 0.00 | 0.00 | 0.00 | 36 | 1013.2 |
| 20260503185100 | 14 | 261 | 6.4 | 22.5 | 0.00 | 0.00 | 0.00 | 37 | 1013.2 |
| 20260503184602 | 13 | 317 | 8.0 | 22.5 | 0.00 | 0.00 | 0.00 | 37 | 1013.1 |
| 20260503184059 | 13 | 291 | 8.0 | 22.5 | 0.00 | 0.00 | 0.00 | 37 | 1013.2 |
| 20260503183559 | 13 | 59 | 9.7 | 25.7 | 0.00 | 0.00 | 0.00 | 36 | 1013.3 |
| 20260503183110 | 13 | 311 | 16.1 | 32.2 | 0.00 | 0.00 | 0.00 | 38 | 1013.3 |
| 20260503182557 | 13 | 288 | 14.5 | 37.0 | 0.00 | 0.00 | 0.00 | 38 | 1013.3 |
| 20260503182059 | 13 | 26 | 20.9 | 37.0 | 0.00 | 0.00 | 0.00 | 35 | 1013.5 |
| 20260503181559 | 13 | 308 | 14.5 | 30.6 | 0.00 | 0.00 | 0.00 | 37 | 1013.5 |
| 20260503181101 | 12 | 281 | 8.0 | 20.9 | 0.00 | 0.00 | 0.00 | 38 | 1013.5 |
| 20260503180600 | 12 | 271 | 6.4 | 25.7 | 0.00 | 0.00 | 0.00 | 39 | 1013.6 |
| 20260503180100 | 12 | 344 | 8.0 | 29.0 | 0.00 | 0.00 | 0.00 | 37 | 1013.5 |
| 20260503175559 | 12 | 292 | 8.0 | 29.0 | 0.00 | 0.00 | 0.00 | 38 | 1013.5 |